Meteo Giornale » Osservazioni meteo Olanda » Gilze-Rijen

ore: 20:55 - Osservazioni Meteo Gilze-Rijen
Lat. 51° 34' N Lon. 4° 56' E Alt. 15 metri s.l.m.

coperto

17 °C

Coperto

Temp. 24 Ore

15 °C

22 °C

Nord

5.5 Km/h

Dew point 12 °C

Umidità 72 %

Visibilità  10 Km

Il sole sorge alle ore 06:52

Il sole tramonta alle ore 20:27

Data e Ora Cielo e Fenomeni T °C DP °C Um. % Pres. hPa Vis. km Vento km/h
Oggi h: 20:55 coperto Coperto 17 12 72 1020 10 N 5.5
Oggi h: 20:25 coperto Coperto 18 11 63 1020 10 N 5.5
Oggi h: 19:55 molto_nuvoloso Molto Nuvoloso 19 11 59 1020 10 O/NO 13
Oggi h: 19:25 coperto Coperto 20 12 59 1020 10 O 13
Oggi h: 18:55 coperto Coperto 20 12 59 1020 10 O/NO 13
Oggi h: 18:25 coperto Coperto 21 11 52 1020 10 O 13
Oggi h: 17:55 molto_nuvoloso Molto Nuvoloso 21 11 52 1020 10 O 16.7
Oggi h: 17:25 molto_nuvoloso Molto Nuvoloso 21 11 52 1020 10 O/NO 16.7
Oggi h: 16:55 coperto Coperto 21 11 52 1020 10 O/NO 16.7
Oggi h: 16:25 coperto Coperto 22 12 53 1020 10 O/NO 18.5
Oggi h: 15:55 coperto Coperto 21 11 52 1020 10 O 20.3
Oggi h: 15:25 coperto Coperto 21 12 56 1020 10 O/NO 18.5
Oggi h: 14:55 molto_nuvoloso Molto Nuvoloso 22 12 53 1020 10 O 18.5
Oggi h: 14:25 molto_nuvoloso Molto Nuvoloso 21 12 56 1020 10 O 20.3
Oggi h: 13:55 molto_nuvoloso Molto Nuvoloso 21 12 56 1020 10 O/NO 20.3
Oggi h: 13:25 poco_nuvoloso Poco Nuvoloso 21 13 60 1020 10 O 22.2
Oggi h: 12:55 molto_nuvoloso Molto Nuvoloso 20 13 64 1020 10 O/NO 18.5
Oggi h: 12:25 molto_nuvoloso Molto Nuvoloso 20 13 64 1020 10 O 18.5
Oggi h: 11:55 molto_nuvoloso Molto Nuvoloso 20 15 72 1020 10 O/NO 14.8
Oggi h: 11:25 nuvoloso Nuvoloso 20 15 72 1020 10 O 14.8
Oggi h: 10:55 coperto Coperto 19 17 88 1020 10 O 9.3
Oggi h: 10:25 foschia Foschia 17 17 100 1019 9 SO 7.4
Oggi h: 09:55 foschia Foschia 17 16 93 1019 6 S/SO 7.4
Oggi h: 09:25 foschia Foschia 17 17 100 1019 8 SO 7.4
Oggi h: 08:55 foschia Foschia 17 16 93 1018 7 SO 9.3
Oggi h: 08:25 foschia Foschia 16 16 100 1018 6 SO 7.4
Oggi h: 07:55 foschia Foschia 16 16 100 1018 6 S/SO 7.4
Oggi h: 07:25 nuvoloso_piovaschi Pioggia Pioviggine 16 16 100 1018 5 N 5.5
Oggi h: 06:55 coperto_pioggia Pioggia 15 15 100 1018 4 N 5.5
Oggi h: 06:25 coperto Coperto 15 15 100 1018 10 S/SO 7.4
Oggi h: 05:55 molto_nuvoloso Molto Nuvoloso 16 15 93 1017 10 S/SO 7.4
Oggi h: 05:25 nuvoloso_piovaschi Pioggia 16 15 93 1017 5 O/SO 7.4
Oggi h: 04:55 coperto_pioggia Pioggia 15 15 100 1017 10 S/SO 11.1
Oggi h: 04:25 coperto Coperto 15 15 100 1017 10 S/SO 9.3
Oggi h: 03:55 coperto Coperto 16 15 93 1017 10 S/SO 11.1
Oggi h: 03:25 coperto Coperto 16 15 93 1017 10 S/SO 9.3
Oggi h: 02:55 coperto Coperto 16 16 100 1017 10 S/SO 9.3
Oggi h: 02:25 molto_nuvoloso Molto Nuvoloso 16 15 93 1017 10 S/SO 9.3
Oggi h: 01:25 coperto Coperto 17 15 88 1017 10 O/SO 7.4
Oggi h: 00:55 coperto Coperto 17 15 88 1017 10 SO 7.4
Oggi h: 00:25 molto_nuvoloso Molto Nuvoloso 17 15 88 1016 10 SO 9.3
Ieri h: 23:55 nuvoloso Nuvoloso 17 15 88 1016 10 SO 11.1
Ieri h: 23:25 nuvoloso Nuvoloso 17 14 82 1016 10 SO 11.1
Ieri h: 22:55 poco_nuvoloso Poco Nuvoloso 18 14 77 1016 10 SO 11.1
Ieri h: 22:25 poco_nuvoloso Poco Nuvoloso 18 14 77 1016 10 SO 11.1
Ieri h: 21:55 coperto Coperto 18 14 77 1015 10 SO 7.4